Flag for Russia Weather past 2 weeks in Yuzhno-Sakhalinsk, Russia

Now
70 °F

Scattered clouds.


Feels Like: 70 °F
Forecast: 49 / 60 °F
Wind: 3 mph from North

Location: Yuzhno Airport-Sakhalinsk

Current Time: Sep 3, 2015 at 7:09:21 PM

Latest Report: Sep 3, 2015 at 6:30 PM


Visibility: N/A

Pressure: 29.62 "Hg

Humidity: 78%

Dew point: 63 °F

Location of Yuzhno-SakhalinskLocation

Historic Weather in Yuzhno-Sakhalinsk — Graph

°F

Yuzhno-Sakhalinsk temperature yesterday

Maximum temperature yesterday: 72 °F (at 11:30 AM)
Minimum temperature yesterday: 43 °F (at 4:00 AM)
Average temperature yesterday: 60 °F

Past Weeks' High & Low Weather Summary

 TemperatureHumidityPressure
High81 °F (Aug 25, 2:00 PM)100% (Aug 19, 7:30 PM)30.18 "Hg (Aug 19, 7:30 PM)
Low37 °F (Aug 29, 5:00 AM)29% (Aug 29, 3:00 PM)29.59 "Hg (Sep 3, 4:00 PM)
Average59 °F84%29.94 "Hg
* Reported Aug 19 6:00 PM — Sep 3 6:00 PM, Yuzhno-Sakhalinsk, Weather by CustomWeather, © 2015

Note: Actual official high and low records may vary slightly from our data, if they occured in-between our weather recording intervals... More about our weather records

Advertising

Yuzhno-Sakhalinsk weather history for previous 24 hours

 ConditionsComfort  
Time TempWeatherWind HumidityBarometerVisibility
6:00 PM
Thu, Sep 3
72 °FScattered clouds.6 mph73%29.62 "HgN/A
5:30 PM73 °FScattered clouds.3 mph69%29.62 "HgN/A
5:00 PM75 °FScattered clouds.6 mph65%29.62 "HgN/A
4:30 PM75 °FScattered clouds.1 mph69%29.62 "HgN/A
4:00 PM75 °FScattered clouds.3 mph74%29.59 "HgN/A
3:30 PM75 °FScattered clouds.3 mph69%29.62 "HgN/A
3:00 PM73 °FScattered clouds.8 mph74%29.62 "HgN/A
2:30 PM73 °FScattered clouds.10 mph74%29.62 "HgN/A
2:00 PM73 °FScattered clouds.10 mph74%29.62 "HgN/A
1:30 PM72 °FScattered clouds.8 mph73%29.62 "HgN/A
1:00 PM72 °FScattered clouds.10 mph73%29.65 "HgN/A
12:30 PM70 °FScattered clouds.10 mph78%29.65 "HgN/A
12:00 PM72 °FScattered clouds.3 mph73%29.65 "HgN/A
11:30 AM72 °FPartly sunny.3 mph73%29.65 "HgN/A
11:00 AM68 °FPartly sunny.3 mph83%29.68 "HgN/A
10:30 AM68 °FPartly sunny.6 mph83%29.68 "HgN/A
10:00 AM66 °FPartly sunny.3 mph94%29.68 "HgN/A
9:30 AM64 °FPartly sunny.1 mph100%29.68 "HgN/A
9:00 AM63 °FPartly sunny.1 mph100%29.68 "HgN/A
8:30 AM59 °FPartly sunny.No wind100%29.68 "HgN/A
7:30 AM54 °FFog.1 mph100%29.68 "Hg1 mi
7:00 AM52 °FFog.1 mph100%29.68 "Hg1 mi
6:30 AM50 °FFog.3 mph100%29.68 "Hg1 mi
6:00 AM48 °FFog.No wind100%29.65 "Hg0 mi
5:30 AM48 °FFog.1 mph100%29.65 "Hg0 mi
5:00 AM50 °FFog.No wind100%29.65 "Hg1 mi
4:00 AM50 °FFog.1 mph100%29.68 "Hg0 mi
3:00 AM50 °FFog.No wind100%29.68 "Hg1 mi
2:00 AM52 °FFog.No wind100%29.68 "Hg1 mi
1:00 AM50 °FClear.No wind100%29.68 "Hg5 mi
12:00 AM54 °FClear.No wind100%29.68 "HgN/A
11:30 PM
Wed, Sep 2
55 °FClear.3 mph100%29.68 "HgN/A
11:00 PM54 °FClear.1 mph100%29.68 "HgN/A
10:30 PM55 °FClear.No wind100%29.71 "HgN/A
10:00 PM57 °FClear.1 mph100%29.71 "HgN/A
9:30 PM57 °FClear.No wind100%29.71 "Hg5 mi
9:00 PM57 °FClear.No wind100%29.71 "Hg5 mi
8:30 PM59 °FClear.1 mph100%29.68 "Hg5 mi
8:00 PM59 °FClear.No wind100%29.71 "HgN/A
7:30 PM61 °FClear.No wind94%29.71 "HgN/A
7:00 PM63 °FClear.No wind94%29.71 "HgN/A
Weather by CustomWeather, © 2015

See weather overviewHow to use our weather pages